Regional Weather Roundup
Issued by NWS Northern Indiana

Home | Current Version | Previous Version | Graphics & Text | Print | Product List | Glossary On
Versions: 1 2 3 4 5 6 7 8 9 10 11 12 13 14 15 16 17 18 19 20 21 22 23 24 25 26 27 28 29 30 31 32 33 34 35 36 37 38 39 40 41 42 43 44 45 46 47 48 49 50
807
ASUS43 KIWX 261400
RWRIWX

KIWX WEATHER ROUNDUP
NATIONAL WEATHER SERVICE NORTHERN INDIANA
1000 AM EDT FRI MAY 26 2017

NOTE: "FAIR" INDICATES FEW OR NO CLOUDS BELOW 12,000 FEET WITH NO
SIGNIFICANT WEATHER AND/OR OBSTRUCTIONS TO VISIBILITY.

* THESE STATIONS ARE NOT UNDER NWS QUALITY CONTROL. THEY ALSO MAY NOT
  REPORT WEATHER SUCH AS PRECIPITATION OR FOG.

INZ001>027-261500-
NORTHERN INDIANA

CITY           SKY/WX    TMP DP  RH WIND       PRES   REMARKS
GARY*          MOSUNNY   64  52  63 VRB3      29.88S
MICHIGAN CITY* SUNNY     61  55  82 CALM      29.89R
SOUTH BEND     SUNNY     61  54  77 CALM      29.88F
ELKHART*       MOSUNNY   57  54  88 CALM      29.88S
GOSHEN         SUNNY     59  51  75 NW3       29.88S
MONTICELLO*    CLOUDY    62  53  73 CALM      29.90R
ANGOLA*        CLOUDY    55  52  88 CALM      29.88R
FORT WAYNE     MOSUNNY   61  53  75 W7        29.90R
PERU/GRISSOM   MOSUNNY   61  56  85 W3        29.90R

$$
INZ028>050-261500-
CENTRAL INDIANA

CITY           SKY/WX    TMP DP  RH WIND       PRES   REMARKS
LAFAYETTE      CLOUDY    62  58  86 S3        29.90R
KOKOMO*        MOSUNNY   62  53  72 W5        29.92R
MUNCIE*        SUNNY     64  54  69 W6        29.91R
INDIANAPOLIS   PTSUNNY   65  57  75 S5        29.91S

$$
MIZ043>046-050>051-056>058-064>065-071>073-077>080-261500-
SOUTHWEST LOWER MICHIGAN

CITY           SKY/WX    TMP DP  RH WIND       PRES   REMARKS
BATTLE CREEK   CLOUDY    53  53 100 W7        29.88R FOG
BENTON HARBOR  SUNNY     58  52  80 SW3       29.87S
COLDWATER*     CLOUDY    55  55 100 W6        29.88R FOG
HILLSDALE*     PTSUNNY   59  52  77 NW5       29.86S
HOLLAND        CLOUDY    54  53  97 W3        29.87S
GRAND RAPIDS   PTSUNNY   60  54  80 SW7       29.85S
KALAMAZOO      CLOUDY    54  51  90 W6        29.88R
STURGIS*       CLOUDY    56  53  89 CALM      29.87S
THREE RIVERS*  FAIR      58  53  83 NW5       29.88S

$$
OHZ001>008-015>018-024>025-261500-
NORTHWEST OHIO

CITY           SKY/WX    TMP DP  RH WIND       PRES   REMARKS
DEFIANCE       CLOUDY    56  51  84 W5        29.88S
FINDLAY        CLOUDY    59  52  77 W10       29.86S
TOLEDO EXPRESS CLOUDY    59  52  77 W10       29.85R
TOLEDO METCALF CLOUDY    60  55  83 NW7       29.85S
LIMA           CLOUDY    56  54  93 NW10      29.89R

$$
AND FOR LAKE MICHIGAN COASTAL AND OPEN LAKE BUOY OBSERVATIONS

STATION/POSITION TEMP    WIND        PRES    VSBY  WAVE
                 AIR SEA DIR/SP/G                  HT/PER
                 (F)     (DEG/KT/KT) (MB)    (MI)  (FT/S)
CALUMET HARBOR    59      60/  4/  4 1011.2R
MICHIGAN CITY     55      20/  3/  3   N/A
BURNS HARBOR      59      50/  4/  6 1012.5R
SOUTH LAKE BUOY   45 45   20/  8/ 10 1011.5          1/ 4
4 MI NW BRIDGMAN  52 55   CALM  /  2 1012.4R         2/ 5
MICHIGAN CITY     53 52   40/  2/  2   N/A           2/ 5

$$
&&




USA.gov is the U.S. government's official web portal to all federal, state and local government web resources and services.